Time,TemperatureF,DewpointF,PressureIn,WindDirection,WindDirectionDegrees,WindSpeedMPH,WindSpeedGustMPH,Humidity,HourlyPrecipIn,Conditions,Clouds,dailyrainin,SoftwareType,DateUTC
2013-04-14 00:07:00,53.2,22.0,29.74,WSW,254,4.0,20.0,29,0.00,,,0.00,weatherlink.com 1.10,2013-04-14 06:07:00,
2013-04-14 00:22:00,53.0,21.0,29.72,WSW,247,7.0,19.0,29,0.00,,,0.00,weatherlink.com 1.10,2013-04-14 06:22:00,
2013-04-14 00:37:00,53.2,22.0,29.71,WSW,254,14.0,25.0,30,0.00,,,0.00,weatherlink.com 1.10,2013-04-14 06:37:00,
2013-04-14 00:52:00,53.0,23.0,29.70,West,262,17.0,28.0,31,0.00,,,0.00,weatherlink.com 1.10,2013-04-14 06:52:00,
2013-04-14 01:07:00,52.2,22.0,29.68,West,273,12.0,25.0,31,0.00,,,0.00,weatherlink.com 1.10,2013-04-14 07:07:00,
2013-04-14 01:23:00,51.9,23.0,29.69,West,267,19.0,21.0,32,0.00,,,0.00,weatherlink.com 1.10,2013-04-14 07:23:00,
2013-04-14 01:38:00,51.7,23.0,29.69,West,260,13.0,27.0,32,0.00,,,0.00,weatherlink.com 1.10,2013-04-14 07:38:00,
2013-04-14 01:53:00,51.5,22.0,29.68,West,265,20.0,28.0,32,0.00,,,0.00,weatherlink.com 1.10,2013-04-14 07:53:00,
2013-04-14 02:08:00,50.8,22.0,29.68,WSW,257,7.0,23.0,33,0.00,,,0.00,weatherlink.com 1.10,2013-04-14 08:08:00,
2013-04-14 02:23:00,50.7,22.0,29.69,West,263,8.0,26.0,33,0.00,,,0.00,weatherlink.com 1.10,2013-04-14 08:23:00,
2013-04-14 02:38:00,50.4,22.0,29.69,WSW,257,11.0,22.0,33,0.00,,,0.00,weatherlink.com 1.10,2013-04-14 08:38:00,
2013-04-14 02:53:00,50.1,23.0,29.70,WSW,239,8.0,20.0,34,0.00,,,0.00,weatherlink.com 1.10,2013-04-14 08:53:00,
2013-04-14 03:08:00,49.9,22.0,29.69,SW,229,16.0,16.0,34,0.00,,,0.00,weatherlink.com 1.10,2013-04-14 09:08:00,
2013-04-14 03:23:00,49.9,22.0,29.70,SW,225,5.0,14.0,34,0.00,,,0.00,weatherlink.com 1.10,2013-04-14 09:23:00,
2013-04-14 03:38:00,49.4,23.0,29.69,WSW,240,7.0,16.0,35,0.00,,,0.00,weatherlink.com 1.10,2013-04-14 09:38:00,
2013-04-14 03:53:00,49.2,22.0,29.68,SW,235,2.0,18.0,35,0.00,,,0.00,weatherlink.com 1.10,2013-04-14 09:53:00,
2013-04-14 04:08:00,49.0,22.0,29.68,WSW,244,3.0,16.0,35,0.00,,,0.00,weatherlink.com 1.10,2013-04-14 10:08:00,
2013-04-14 04:23:00,48.7,22.0,29.67,West,273,11.0,22.0,35,0.00,,,0.00,weatherlink.com 1.10,2013-04-14 10:23:00,
2013-04-14 04:38:00,48.6,22.0,29.67,WNW,283,16.0,19.0,35,0.00,,,0.00,weatherlink.com 1.10,2013-04-14 10:38:00,
2013-04-14 04:53:00,48.3,22.0,29.68,West,260,3.0,16.0,35,0.00,,,0.00,weatherlink.com 1.10,2013-04-14 10:53:00,
2013-04-14 05:08:00,48.2,22.0,29.68,WSW,255,5.0,21.0,35,0.00,,,0.00,weatherlink.com 1.10,2013-04-14 11:08:00,
2013-04-14 05:23:00,47.4,21.0,29.68,West,265,1.0,14.0,36,0.00,,,0.00,weatherlink.com 1.10,2013-04-14 11:23:00,
2013-04-14 05:38:00,47.3,21.0,29.68,West,265,10.0,17.0,36,0.00,,,0.00,weatherlink.com 1.10,2013-04-14 11:38:00,
2013-04-14 05:53:00,47.3,21.0,29.68,WSW,250,3.0,15.0,36,0.00,,,0.00,weatherlink.com 1.10,2013-04-14 11:53:00,
2013-04-14 06:09:00,46.9,21.0,29.67,West,272,4.0,13.0,36,0.00,,,0.00,weatherlink.com 1.10,2013-04-14 12:09:00,
2013-04-14 06:23:00,46.1,21.0,29.67,WSW,258,5.0,11.0,37,0.00,,,0.00,weatherlink.com 1.10,2013-04-14 12:23:00,
2013-04-14 06:38:00,46.2,22.0,29.67,West,267,2.0,13.0,38,0.00,,,0.00,weatherlink.com 1.10,2013-04-14 12:38:00,
2013-04-14 06:54:00,45.3,21.0,29.66,West,268,0.0,5.0,39,0.00,,,0.00,weatherlink.com 1.10,2013-04-14 12:54:00,
2013-04-14 07:09:00,45.4,22.0,29.67,West,267,1.0,9.0,39,0.00,,,0.00,weatherlink.com 1.10,2013-04-14 13:09:00,
2013-04-14 07:24:00,45.6,22.0,29.67,West,267,0.0,6.0,39,0.00,,,0.00,weatherlink.com 1.10,2013-04-14 13:24:00,
2013-04-14 07:39:00,46.4,22.0,29.66,West,267,1.0,4.0,39,0.00,,,0.00,weatherlink.com 1.10,2013-04-14 13:39:00,
2013-04-14 07:54:00,47.8,23.0,29.67,West,268,5.0,10.0,38,0.00,,,0.00,weatherlink.com 1.10,2013-04-14 13:54:00,
2013-04-14 08:09:00,48.5,23.0,29.67,West,263,2.0,17.0,37,0.00,,,0.00,weatherlink.com 1.10,2013-04-14 14:09:00,
2013-04-14 08:24:00,48.6,23.0,29.67,West,267,11.0,16.0,37,0.00,,,0.00,weatherlink.com 1.10,2013-04-14 14:24:00,
2013-04-14 08:39:00,48.4,24.0,29.67,West,264,2.0,11.0,38,0.00,,,0.00,weatherlink.com 1.10,2013-04-14 14:39:00,
2013-04-14 08:54:00,48.8,24.0,29.66,West,276,10.0,14.0,38,0.00,,,0.00,weatherlink.com 1.10,2013-04-14 14:54:00,
2013-04-14 09:09:00,49.6,24.0,29.66,WNW,289,11.0,22.0,37,0.00,,,0.00,weatherlink.com 1.10,2013-04-14 15:09:00,
2013-04-14 09:24:00,50.0,24.0,29.66,West,277,10.0,18.0,37,0.00,,,0.00,weatherlink.com 1.10,2013-04-14 15:24:00,
2013-04-14 09:39:00,50.3,25.0,29.66,West,277,16.0,18.0,37,0.00,,,0.00,weatherlink.com 1.10,2013-04-14 15:39:00,
2013-04-14 09:54:00,50.8,25.0,29.66,West,275,6.0,28.0,36,0.00,,,0.00,weatherlink.com 1.10,2013-04-14 15:54:00,
2013-04-14 10:09:00,51.2,25.0,29.65,WNW,294,14.0,20.0,36,0.00,,,0.00,weatherlink.com 1.10,2013-04-14 16:09:00,
2013-04-14 10:25:00,51.5,25.0,29.66,West,265,8.0,25.0,36,0.00,,,0.00,weatherlink.com 1.10,2013-04-14 16:25:00,
2013-04-14 10:40:00,52.1,26.0,29.66,West,270,9.0,21.0,36,0.00,,,0.00,weatherlink.com 1.10,2013-04-14 16:40:00,
2013-04-14 10:55:00,52.6,25.0,29.67,West,276,8.0,24.0,35,0.00,,,0.00,weatherlink.com 1.10,2013-04-14 16:55:00,
2013-04-14 11:10:00,52.4,25.0,29.67,West,266,9.0,24.0,35,0.00,,,0.00,weatherlink.com 1.10,2013-04-14 17:10:00,
2013-04-14 11:25:00,52.7,26.0,29.67,West,270,10.0,20.0,35,0.00,,,0.00,weatherlink.com 1.10,2013-04-14 17:25:00,
2013-04-14 11:40:00,53.0,26.0,29.67,WSW,253,10.0,22.0,35,0.00,,,0.00,weatherlink.com 1.10,2013-04-14 17:40:00,
2013-04-14 11:55:00,53.6,26.0,29.67,West,274,8.0,20.0,34,0.00,,,0.00,weatherlink.com 1.10,2013-04-14 17:55:00,
2013-04-14 12:10:00,54.2,25.0,29.67,WSW,248,10.0,22.0,33,0.00,,,0.00,weatherlink.com 1.10,2013-04-14 18:10:00,
2013-04-14 12:25:00,54.6,26.0,29.68,WSW,242,12.0,21.0,33,0.00,,,0.00,weatherlink.com 1.10,2013-04-14 18:25:00,
2013-04-14 12:40:00,54.8,26.0,29.68,WNW,286,16.0,21.0,33,0.00,,,0.00,weatherlink.com 1.10,2013-04-14 18:40:00,
2013-04-14 12:55:00,54.7,25.0,29.68,WNW,284,6.0,18.0,32,0.00,,,0.00,weatherlink.com 1.10,2013-04-14 18:55:00,
2013-04-14 13:10:00,55.2,25.0,29.67,WNW,290,23.0,25.0,31,0.00,,,0.00,weatherlink.com 1.10,2013-04-14 19:10:00,
2013-04-14 13:25:00,55.7,25.0,29.68,West,271,13.0,22.0,30,0.00,,,0.00,weatherlink.com 1.10,2013-04-14 19:25:00,
2013-04-14 13:40:00,56.2,25.0,29.68,West,272,5.0,17.0,30,0.00,,,0.00,weatherlink.com 1.10,2013-04-14 19:40:00,
2013-04-14 13:55:00,56.6,25.0,29.67,West,263,10.0,18.0,30,0.00,,,0.00,weatherlink.com 1.10,2013-04-14 19:55:00,
2013-04-14 14:10:00,57.4,25.0,29.67,West,271,8.0,20.0,29,0.00,,,0.00,weatherlink.com 1.10,2013-04-14 20:10:00,
2013-04-14 14:25:00,57.9,25.0,29.67,WNW,294,8.0,18.0,28,0.00,,,0.00,weatherlink.com 1.10,2013-04-14 20:25:00,
2013-04-14 14:40:00,58.6,25.0,29.68,West,267,8.0,20.0,27,0.00,,,0.00,weatherlink.com 1.10,2013-04-14 20:40:00,
2013-04-14 14:55:00,58.2,24.0,29.68,West,268,16.0,18.0,27,0.00,,,0.00,weatherlink.com 1.10,2013-04-14 20:55:00,
2013-04-14 15:10:00,58.2,24.0,29.68,WNW,294,6.0,16.0,27,0.00,,,0.00,weatherlink.com 1.10,2013-04-14 21:10:00,
2013-04-14 15:25:00,57.9,24.0,29.68,WNW,292,5.0,22.0,27,0.00,,,0.00,weatherlink.com 1.10,2013-04-14 21:25:00,
2013-04-14 15:40:00,58.0,25.0,29.69,West,259,8.0,20.0,28,0.00,,,0.00,weatherlink.com 1.10,2013-04-14 21:40:00,
2013-04-14 15:55:00,58.3,24.0,29.68,West,271,5.0,23.0,27,0.00,,,0.00,weatherlink.com 1.10,2013-04-14 21:55:00,
2013-04-14 16:10:00,58.6,25.0,29.68,West,280,3.0,18.0,28,0.00,,,0.00,weatherlink.com 1.10,2013-04-14 22:10:00,
2013-04-14 16:25:00,59.6,26.0,29.68,West,280,12.0,15.0,28,0.00,,,0.00,weatherlink.com 1.10,2013-04-14 22:25:00,
2013-04-14 16:40:00,59.5,25.0,29.68,West,272,5.0,15.0,27,0.00,,,0.00,weatherlink.com 1.10,2013-04-14 22:40:00,
2013-04-14 16:55:00,60.3,26.0,29.68,West,267,6.0,16.0,27,0.00,,,0.00,weatherlink.com 1.10,2013-04-14 22:55:00,
2013-04-14 17:10:00,60.3,25.0,29.68,West,281,6.0,17.0,26,0.00,,,0.00,weatherlink.com 1.10,2013-04-14 23:10:00,
2013-04-14 17:25:00,62.0,26.0,29.68,WNW,286,8.0,15.0,25,0.00,,,0.00,weatherlink.com 1.10,2013-04-14 23:25:00,
2013-04-14 17:40:00,60.7,26.0,29.68,WSW,247,6.0,18.0,27,0.00,,,0.00,weatherlink.com 1.10,2013-04-14 23:40:00,
2013-04-14 17:55:00,60.1,25.0,29.68,WNW,284,7.0,12.0,26,0.00,,,0.00,weatherlink.com 1.10,2013-04-14 23:55:00,
2013-04-14 18:10:00,60.0,25.0,29.68,West,263,15.0,19.0,26,0.00,,,0.00,weatherlink.com 1.10,2013-04-15 00:10:00,
2013-04-14 18:25:00,61.1,26.0,29.69,West,264,11.0,16.0,26,0.00,,,0.00,weatherlink.com 1.10,2013-04-15 00:25:00,
2013-04-14 18:40:00,60.7,26.0,29.69,West,272,8.0,12.0,27,0.00,,,0.00,weatherlink.com 1.10,2013-04-15 00:40:00,
2013-04-14 18:55:00,60.0,26.0,29.69,West,280,4.0,15.0,27,0.00,,,0.00,weatherlink.com 1.10,2013-04-15 00:55:00,
2013-04-14 19:10:00,58.7,25.0,29.68,West,269,1.0,14.0,28,0.00,,,0.00,weatherlink.com 1.10,2013-04-15 01:10:00,
2013-04-14 19:25:00,57.7,25.0,29.69,West,278,3.0,9.0,28,0.00,,,0.00,weatherlink.com 1.10,2013-04-15 01:25:00,
2013-04-14 19:40:00,56.4,24.0,29.69,West,275,1.0,4.0,29,0.00,,,0.00,weatherlink.com 1.10,2013-04-15 01:40:00,
2013-04-14 19:55:00,54.6,24.0,29.70,West,275,0.0,1.0,30,0.00,,,0.00,weatherlink.com 1.10,2013-04-15 01:55:00,
2013-04-14 20:10:00,50.2,23.0,29.70,West,275,1.0,4.0,35,0.00,,,0.00,weatherlink.com 1.10,2013-04-15 02:10:00,
2013-04-14 20:26:00,48.3,24.0,29.71,West,275,0.0,4.0,38,0.00,,,0.00,weatherlink.com 1.10,2013-04-15 02:26:00,
2013-04-14 20:40:00,47.0,24.0,29.72,West,272,1.0,5.0,40,0.00,,,0.00,weatherlink.com 1.10,2013-04-15 02:40:00,
2013-04-14 20:55:00,46.6,24.0,29.72,West,260,2.0,5.0,41,0.00,,,0.00,weatherlink.com 1.10,2013-04-15 02:55:00,
2013-04-14 21:10:00,46.7,24.0,29.72,SSW,211,2.0,6.0,41,0.00,,,0.00,weatherlink.com 1.10,2013-04-15 03:10:00,
2013-04-14 21:25:00,46.3,24.0,29.72,SSW,208,0.0,6.0,41,0.00,,,0.00,weatherlink.com 1.10,2013-04-15 03:25:00,
2013-04-14 21:40:00,45.9,24.0,29.72,SSW,205,3.0,4.0,42,0.00,,,0.00,weatherlink.com 1.10,2013-04-15 03:40:00,
2013-04-14 21:55:00,45.8,24.0,29.72,SSW,205,1.0,6.0,42,0.00,,,0.00,weatherlink.com 1.10,2013-04-15 03:55:00,
2013-04-14 22:10:00,45.9,24.0,29.73,SSW,201,0.0,6.0,42,0.00,,,0.00,weatherlink.com 1.10,2013-04-15 04:10:00,
2013-04-14 22:25:00,46.1,24.0,29.73,SSW,194,3.0,6.0,42,0.00,,,0.00,weatherlink.com 1.10,2013-04-15 04:25:00,
2013-04-14 22:40:00,46.1,24.0,29.73,South,178,1.0,6.0,42,0.00,,,0.00,weatherlink.com 1.10,2013-04-15 04:40:00,
2013-04-14 22:55:00,46.0,24.0,29.73,South,173,5.0,6.0,43,0.00,,,0.00,weatherlink.com 1.10,2013-04-15 04:55:00,
2013-04-14 23:10:00,46.5,24.0,29.73,South,170,0.0,4.0,42,0.00,,,0.00,weatherlink.com 1.10,2013-04-15 05:10:00,
2013-04-14 23:25:00,47.0,25.0,29.73,South,170,2.0,5.0,42,0.00,,,0.00,weatherlink.com 1.10,2013-04-15 05:25:00,
2013-04-14 23:40:00,46.7,25.0,29.73,South,170,0.0,4.0,42,0.00,,,0.00,weatherlink.com 1.10,2013-04-15 05:40:00,
2013-04-14 23:55:00,46.5,24.0,29.73,South,170,0.0,3.0,41,0.00,,,0.00,weatherlink.com 1.10,2013-04-15 05:55:00,